Temperature
24 21 20 20 21 22 23 23 23 24 26 26 24 24 26 27 26 25 24 23 22 22 23 23 22 22 22 21 21 21 21 20 20 20 20 20 20 19 19 19 19 19 19 18
21 21 22 23 24 24 24 23 23 23 25 26 24 24 25 25 25 25 23 23 22 22 22 22 22 22 21 21 21 21 20 20 20 20 20 19 19 19 19 19 19 19 19 18
22 23 25 25 25 24 24 23 23 23 23 23 24 22 23 24 24 23 22 22 22 21 21 21 21 21 21 21 21 21 20 20 20 20 19 19 18 18 18 18 19 19 18 18
23 24 25 25 25 25 22 24 24 23 21 20 22 20 21 22 22 20 19 19 19 19 19 19 19 20 20 20 20 20 20 19 19 19 19 19 19 18 18 18 18 18 18 18
22 24 24 24 24 25 24 24 23 23 21 20 20 20 20 20 20 19 17 16 17 17 17 17 18 18 19 19 19 19 19 19 19 19 19 19 18 18 18 18 18 17 18 18
23 24 25 25 25 25 24 22 20 19 18 18 20 20 18 17 18 18 16 15 15 16 16 16 17 17 17 18 18 18 18 18 18 18 18 18 18 18 17 17 17 17 17 17
22 23 24 25 24 23 22 18 17 17 16 17 19 19 18 17 16 16 15 14 15 15 16 16 16 16 16 16 17 17 17 17 17 17 17 17 17 17 17 17 17 17 17 16
21 20 23 24 23 22 22 19 17 17 16 16 18 18 17 16 15 15 15 15 15 15 15 15 15 15 16 16 16 16 16 16 16 16 16 16 16 16 16 16 16 16 16 16
20 21 23 24 23 23 21 18 17 16 16 16 16 17 16 16 15 15 14 14 14 15 15 15 15 15 15 15 15 15 15 15 15 15 15 15 15 15 15 15 15 15 15 15
21 21 22 23 22 20 19 17 14 15 15 14 15 16 15 15 15 14 14 14 14 15 14 14 15 15 15 15 15 15 15 15 15 14 14 15 15 15 15 15 15 15 14 14
21 19 20 20 20 20 19 16 14 13 14 14 13 14 15 14 14 14 14 14 14 14 14 14 14 14 14 14 14 14 14 14 14 14 14 14 14 14 14 14 14 14 14 14
19 16 17 18 20 20 18 16 14 14 13 12 12 12 15 14 14 14 14 14 14 14 14 14 14 14 14 14 14 13 14 14 14 14 14 14 14 14 14 14 14 13 13 13
18 15 15 15 16 18 18 16 15 12 11 11 11 13 14 13 14 14 14 14 14 14 14 13 13 13 13 13 13 13 13 13 13 13 13 13 13 13 13 13 13 13 13 13
17 15 15 15 16 17 18 18 15 12 11 11 12 13 14 13 13 13 14 14 13 13 13 13 13 13 13 13 13 13 13 13 13 13 13 13 12 12 12 12 12 12 12 12
17 16 16 16 17 18 18 19 17 15 13 13 14 14 14 13 13 13 14 13 13 13 13 13 13 13 13 13 12 12 12 12 12 12 12 12 12 12 12 12 12 11 11 11
16 17 17 17 18 18 18 19 18 17 17 16 15 15 14 14 14 13 13 13 13 13 13 13 13 12 12 12 12 12 12 12 12 12 12 12 12 12 11 11 11 11 11 11
15 15 15 15 17 17 16 17 18 18 18 17 15 14 14 13 13 13 13 13 13 13 13 12 12 12 12 12 12 12 12 11 12 12 11 11 11 11 11 11 11 11 11 11
15 14 13 14 15 16 15 17 19 18 17 17 16 14 13 14 15 14 14 14 13 13 12 12 12 12 12 11 11 11 11 11 11 11 11 11 11 11 11 11 11 10 10 10
16 15 14 13 14 15 17 19 19 17 17 16 15 14 14 15 14 13 14 14 14 13 13 12 12 12 11 11 11 11 11 11 11 11 11 11 11 10 10 10 10 10 10 10
16 15 14 14 14 15 16 18 19 17 15 16 15 14 14 13 11 12 15 14 13 13 13 12 12 12 11 11 11 11 11 11 10 10 10 10 10 10 10 10 10 10 10 10
15 15 15 14 14 15 17 19 19 16 14 17 17 17 16 13 14 15 15 14 13 13 12 12 12 11 11 11 11 11 10 10 10 10 10 10 10 10 10 10 9 9 9 9
15 14 14 14 14 15 18 19 16 16 17 18 18 18 17 16 16 15 15 14 13 13 12 12 12 11 11 11 11 10 10 10 10 10 10 10 10 9 9 9 9 9 9 9
15 15 14 14 15 17 19 19 20 19 18 18 18 18 17 16 15 15 14 14 13 13 12 12 12 11 11 11 11 10 10 10 10 10 10 9 9 9 9 9 9 9 9 9
15 16 15 15 16 18 19 20 20 19 19 19 18 18 17 17 16 15 14 14 13 13 12 12 12 11 11 11 10 10 10 10 10 9 9 9 9 9 9 9 9 9 9 9
14 15 14 14 15 17 19 19 19 19 19 19 18 18 18 17 16 15 14 14 13 13 13 12 12 11 11 11 10 10 10 10 9 9 9 9 9 9 9 9 9 9 9 9
14 14 14 14 16 15 17 19 19 19 19 19 18 18 18 17 17 16 15 14 14 13 13 12 12 11 11 10 10 10 10 9 9 9 9 9 9 9 9 9 9 9 9 9
Wind_Speed
3 2 5 10 10 10 8 7 8 9 7 6 8 11 14 8 11 14 13 14 14 11 8 9 9 8 7 8 9 10 10 9 8 6 5 5 4 4 3 3 4 4 6 7
2 6 14 12 9 6 5 4 6 8 9 8 7 7 3 3 8 12 16 17 17 13 10 10 9 9 10 10 9 9 8 8 8 7 6 4 4 4 4 3 3 4 5 6
7 8 8 4 2 3 5 4 5 7 9 8 8 10 6 4 3 5 6 9 11 13 13 11 9 7 6 8 9 7 7 7 7 7 4 3 2 1 1 2 2 3 5 5
4 4 4 4 4 3 5 6 5 6 6 6 6 5 9 4 4 5 6 8 7 7 7 6 6 5 5 4 5 6 5 4 3 4 4 5 4 4 3 2 2 2 3 4
5 6 5 4 4 4 4 3 4 4 3 4 5 1 8 6 4 3 6 10 10 9 7 6 4 4 4 5 6 6 5 4 3 3 4 4 3 2 1 1 1 1 1 1
6 5 3 3 5 4 3 6 8 7 5 3 5 3 7 4 5 1 5 8 9 8 8 6 5 4 3 4 5 5 6 5 5 5 5 5 5 4 4 3 3 2 2 2
6 7 5 3 3 6 7 7 5 7 5 5 6 4 5 3 5 2 6 7 6 5 5 4 3 3 2 2 4 5 6 5 5 6 6 6 6 6 5 4 3 3 3 2
3 6 4 4 2 1 1 6 5 3 5 6 6 5 3 4 5 7 6 4 3 3 2 2 2 2 2 2 3 5 6 6 6 6 6 6 7 5 4 5 4 3 2 2
3 4 5 6 5 2 2 3 4 6 1 3 6 4 3 4 4 3 2 2 1 1 0 1 2 3 3 4 4 5 6 6 6 6 6 7 6 6 6 5 4 3 2 2
4 1 4 5 7 7 6 5 6 5 1 4 6 5 4 4 2 2 3 3 3 3 2 2 2 3 4 4 4 5 6 6 5 6 5 6 6 6 6 5 5 4 3 3
4 3 4 4 2 1 3 5 6 4 4 4 5 7 6 6 5 6 6 6 4 3 3 2 1 2 3 4 4 4 4 5 5 5 6 6 5 6 6 5 4 3 3 3
4 5 1 5 4 3 6 6 7 5 5 5 4 9 7 6 7 7 8 8 6 5 3 2 1 2 3 3 3 3 3 4 3 5 6 6 6 6 5 4 4 3 4 4
6 6 3 8 6 4 2 4 5 5 5 5 5 9 4 5 6 6 8 8 7 6 5 3 2 3 3 2 2 2 2 2 2 4 6 6 6 5 4 3 3 3 4 5
6 5 7 7 8 6 6 5 5 6 5 6 9 11 8 7 7 7 6 6 6 5 5 4 3 2 1 2 2 2 2 2 3 4 5 5 5 5 4 3 3 4 4 5
6 5 7 8 8 7 8 10 7 8 9 9 9 9 10 7 7 7 7 6 5 4 4 4 3 2 1 2 2 2 1 2 3 5 5 4 4 4 3 3 3 4 5 5
4 4 2 3 6 8 10 11 8 8 7 7 6 7 7 4 3 3 6 7 7 6 5 5 4 3 2 2 2 2 2 2 3 5 4 4 5 5 4 4 4 5 6 5
5 6 3 4 6 7 8 9 8 6 6 7 7 8 5 4 5 6 6 7 7 6 5 5 4 3 2 2 1 1 1 2 4 4 4 5 5 5 5 5 5 5 4 4
8 7 5 3 3 5 9 7 7 7 5 6 6 6 8 8 7 6 7 8 7 7 6 5 4 4 3 2 2 2 2 3 4 5 5 5 5 5 4 4 4 4 3 4
9 8 5 4 4 7 8 5 6 6 4 4 7 8 8 6 3 3 7 8 9 8 7 6 5 4 4 4 3 3 3 3 4 5 5 5 5 5 4 3 2 2 3 4
6 6 5 4 5 7 9 6 5 6 3 4 7 8 8 8 4 7 8 8 8 7 5 5 5 3 4 4 4 4 4 5 5 6 5 5 5 4 3 3 2 1 2 4
3 2 4 5 6 8 7 5 6 4 8 6 7 8 8 10 10 7 8 9 8 8 7 7 6 4 5 5 5 5 5 6 6 6 6 5 4 3 3 2 1 2 3 4
6 4 4 3 4 8 6 5 7 9 7 9 8 8 8 9 8 8 10 10 9 8 8 7 6 5 5 5 6 6 6 6 6 7 6 5 3 2 2 2 2 3 4 5
4 7 5 6 8 8 6 8 9 9 9 10 9 8 9 10 10 11 11 11 10 9 8 6 7 6 5 5 7 7 6 7 7 7 6 5 4 2 2 2 2 3 4 4
5 3 4 5 7 7 8 8 7 9 11 12 11 10 12 12 13 12 11 10 9 8 8 7 7 7 6 6 7 7 7 7 8 7 6 5 4 3 2 2 2 3 4 4
8 5 4 7 9 8 6 7 8 10 10 11 11 11 14 15 13 14 13 12 10 8 7 7 8 8 8 7 7 7 8 8 7 6 6 5 4 4 3 2 2 3 3 5
8 9 8 9 10 7 8 8 8 8 10 12 12 11 11 14 15 15 14 12 11 10 8 8 9 8 8 8 8 7 8 8 8 6 6 5 4 4 4 3 2 3 2 3
Wind_Direction
228 121 233 235 222 221 250 274 283 280 292 315 296 269 252 216 177 174 171 166 158 156 148 146 162 178 194 201 200 189 184 184 178 175 182 189 209 222 231 225 208 195 194 192
352 255 244 241 243 242 264 288 303 306 318 335 327 327 307 151 163 166 166 167 164 154 150 156 160 173 189 196 199 190 185 185 183 184 185 186 188 208 221 225 218 207 198 195
217 251 265 247 260 321 319 311 306 310 330 359 7 342 347 6 69 107 142 154 158 158 156 155 157 165 170 175 182 179 182 191 187 177 163 151 146 156 202 231 235 229 214 211
283 298 346 358 331 329 306 308 338 360 15 330 29 324 304 323 34 63 72 74 81 91 104 116 125 127 130 139 137 131 149 156 164 158 159 168 177 195 216 224 235 254 235 231
304 319 342 332 299 321 274 313 8 3 28 356 10 8 294 357 4 25 62 67 65 66 68 68 75 102 107 102 106 113 117 108 105 120 138 141 142 164 159 65 43 0 338 301
274 285 276 272 295 311 343 16 13 29 51 341 290 278 278 330 312 308 87 78 73 69 62 49 34 35 67 94 101 105 109 104 98 103 105 112 120 114 95 74 60 39 25 12
323 317 309 299 321 348 41 60 17 353 359 268 303 303 264 356 1 87 114 95 81 73 70 62 50 38 46 120 129 126 119 106 99 97 94 98 103 101 97 91 78 63 42 20
264 296 324 16 29 302 23 121 150 224 246 281 319 279 308 54 47 65 81 84 75 74 87 94 89 69 57 83 113 119 110 106 103 101 97 93 93 92 88 82 84 75 61 27
201 269 330 11 15 75 76 71 153 148 285 283 279 302 43 39 34 41 48 46 14 292 215 126 95 84 66 70 87 98 102 98 94 100 100 95 93 94 90 83 78 71 48 19
147 272 328 358 28 31 103 122 75 83 10 288 292 309 286 285 268 246 239 241 262 289 308 328 33 71 74 67 67 81 92 98 96 103 112 110 105 101 95 83 69 53 28 19
89 121 319 7 33 249 88 75 96 112 157 200 262 264 232 223 219 216 217 220 225 250 276 301 345 41 75 74 67 76 90 95 97 98 102 105 103 96 86 77 63 49 32 20
113 115 262 284 280 148 129 151 148 158 218 200 219 263 258 214 216 210 213 218 218 223 222 220 172 105 83 83 86 87 88 95 103 111 108 107 103 98 87 75 58 47 33 18
119 103 38 345 347 2 87 176 165 140 140 177 204 264 267 229 236 229 216 213 213 202 201 187 156 128 110 98 84 81 77 87 97 111 114 109 107 105 102 86 57 40 32 27
111 123 163 202 229 255 278 256 190 145 173 214 228 252 277 260 249 246 228 217 214 194 178 166 149 144 117 85 78 77 68 70 92 109 119 121 125 126 123 99 58 40 45 51
101 163 210 222 244 261 276 277 228 206 201 204 235 238 254 253 244 232 212 199 191 184 177 172 163 164 111 69 56 73 72 76 93 104 109 117 116 111 108 86 57 50 55 65
113 169 202 276 271 287 291 281 242 213 204 214 233 253 240 237 227 209 194 189 191 186 180 171 170 173 161 117 77 72 82 85 103 108 112 107 96 91 89 84 71 64 59 64
166 149 148 258 280 314 280 244 213 201 197 193 220 236 214 224 227 212 198 192 193 187 181 183 185 185 191 199 161 154 148 101 107 110 107 105 101 94 85 83 75 70 65 73
165 149 155 219 330 256 251 246 191 182 199 191 193 197 192 207 216 208 192 184 188 188 186 187 189 194 208 218 212 198 163 132 121 118 113 113 111 105 96 87 79 72 68 79
169 155 157 168 219 264 274 251 181 168 225 206 185 193 197 184 142 255 214 188 188 190 187 192 196 198 207 217 217 187 166 145 141 141 134 126 124 120 115 110 99 86 85 84
132 126 146 177 205 239 251 238 152 111 256 241 175 188 190 149 175 246 216 185 185 187 188 196 199 187 192 211 192 174 175 163 166 161 148 131 125 130 139 146 139 117 111 108
126 145 188 219 237 258 250 180 120 156 234 219 186 194 186 187 208 215 177 175 181 187 196 193 187 184 197 192 168 173 175 179 172 151 134 124 125 143 153 143 138 127 117 110
189 191 214 211 235 257 237 166 178 210 204 200 204 209 202 201 192 171 168 174 179 188 198 189 179 192 198 176 161 169 177 169 148 139 134 132 132 144 136 131 124 127 130 124
199 186 193 203 227 250 239 214 212 180 187 203 204 206 178 169 175 175 178 181 186 191 193 182 174 181 190 176 163 167 175 156 143 140 146 146 133 118 118 132 132 123 133 136
269 224 198 238 251 262 264 254 222 199 199 202 197 188 170 176 183 181 182 184 187 190 187 173 164 170 185 182 171 172 168 156 146 151 156 151 144 134 116 108 122 129 139 141
242 266 252 253 266 277 274 268 244 223 216 207 199 188 183 180 181 183 183 184 184 182 177 168 169 176 185 181 177 174 165 154 154 162 166 164 164 157 142 119 123 149 170 175
229 231 234 247 242 230 250 260 264 239 220 209 201 200 190 182 179 179 182 183 180 176 171 170 174 178 181 177 180 180 172 162 160 167 174 175 173 172 163 152 110 45 127 142
Height
1505 1511 1516 1511 1509 1510 1509 1511 1511 1501 1489 1489 1489 1484 1475 1473 1476 1480 1484 1487 1491 1495 1498 1502 1506 1510 1513 1515 1516 1517 1519 1521 1523 1525 1526 1527 1528 1529 1531 1532 1532 1532 1532 1533
1510 1513 1504 1501 1501 1502 1504 1507 1507 1498 1488 1487 1488 1484 1475 1472 1474 1476 1479 1482 1486 1490 1493 1497 1500 1503 1506 1508 1510 1513 1514 1518 1520 1522 1523 1524 1526 1527 1528 1529 1529 1529 1529 1529
1510 1504 1495 1495 1498 1500 1502 1504 1504 1502 1493 1488 1491 1494 1485 1478 1477 1478 1480 1481 1484 1486 1488 1492 1495 1498 1502 1504 1506 1508 1512 1514 1516 1518 1520 1521 1522 1523 1524 1524 1525 1525 1525 1525
1501 1496 1495 1496 1497 1497 1507 1496 1496 1497 1505 1510 1503 1518 1497 1487 1485 1485 1485 1486 1488 1490 1492 1493 1494 1496 1498 1501 1503 1506 1508 1511 1512 1515 1516 1517 1518 1519 1520 1521 1520 1521 1521 1520
1505 1498 1497 1499 1497 1495 1498 1492 1495 1497 1505 1512 1509 1515 1508 1494 1493 1492 1492 1492 1492 1494 1495 1495 1496 1496 1497 1498 1500 1503 1505 1507 1509 1511 1513 1514 1515 1515 1516 1516 1516 1516 1516 1515
1499 1495 1494 1494 1492 1491 1492 1496 1500 1506 1514 1527 1515 1516 1516 1506 1501 1497 1496 1495 1495 1495 1496 1497 1497 1497 1497 1497 1498 1499 1502 1504 1506 1507 1509 1510 1511 1512 1512 1512 1512 1512 1512 1511
1505 1498 1493 1492 1495 1495 1497 1515 1533 1535 1540 1534 1514 1514 1515 1505 1501 1498 1498 1498 1497 1496 1496 1497 1497 1498 1497 1497 1497 1499 1500 1501 1503 1504 1505 1506 1507 1508 1508 1508 1508 1508 1508 1507
1515 1516 1498 1493 1496 1501 1501 1513 1535 1545 1545 1534 1517 1517 1512 1507 1505 1502 1501 1500 1499 1498 1498 1497 1496 1496 1497 1497 1497 1497 1498 1500 1501 1502 1503 1503 1504 1505 1505 1506 1506 1505 1505 1504
1513 1512 1496 1493 1494 1496 1504 1514 1515 1531 1533 1536 1528 1515 1513 1509 1508 1507 1505 1502 1500 1500 1499 1497 1495 1495 1496 1496 1496 1497 1498 1499 1500 1501 1501 1502 1502 1503 1503 1503 1504 1503 1502 1502
1501 1510 1501 1495 1495 1499 1504 1511 1523 1533 1541 1546 1534 1526 1523 1513 1509 1507 1506 1503 1502 1501 1500 1498 1496 1494 1494 1494 1495 1496 1497 1499 1499 1500 1501 1501 1501 1502 1502 1502 1502 1502 1501 1501
1498 1511 1509 1503 1505 1507 1509 1516 1525 1534 1536 1544 1546 1535 1510 1508 1505 1504 1502 1501 1499 1499 1499 1498 1496 1495 1494 1493 1494 1496 1497 1498 1499 1500 1500 1501 1501 1501 1501 1502 1501 1501 1501 1500
1499 1513 1519 1510 1501 1498 1503 1512 1521 1533 1537 1538 1543 1533 1502 1502 1500 1499 1498 1498 1496 1496 1496 1496 1495 1495 1495 1495 1495 1496 1497 1498 1498 1499 1500 1500 1501 1501 1502 1502 1501 1501 1501 1500
1498 1514 1528 1525 1518 1507 1506 1508 1513 1522 1532 1539 1542 1527 1500 1499 1497 1496 1495 1494 1493 1493 1494 1494 1495 1494 1495 1495 1496 1497 1497 1498 1499 1499 1500 1501 1501 1501 1502 1502 1502 1501 1500 1500
1493 1510 1523 1528 1521 1511 1508 1506 1509 1519 1530 1532 1526 1514 1502 1498 1496 1494 1492 1491 1491 1491 1492 1493 1494 1494 1495 1495 1496 1496 1497 1498 1498 1499 1500 1500 1501 1501 1502 1502 1502 1501 1501 1500
1495 1508 1508 1508 1504 1501 1501 1499 1500 1507 1510 1516 1510 1505 1498 1494 1492 1490 1489 1489 1490 1491 1491 1492 1493 1494 1495 1495 1496 1496 1497 1498 1498 1499 1499 1500 1500 1501 1501 1502 1502 1501 1501 1500
1496 1503 1503 1504 1498 1497 1497 1492 1492 1494 1495 1498 1498 1497 1490 1489 1488 1488 1487 1488 1489 1489 1490 1491 1492 1494 1494 1495 1495 1496 1496 1497 1497 1498 1498 1499 1499 1500 1501 1501 1502 1502 1501 1501
1497 1502 1508 1511 1501 1500 1502 1489 1486 1487 1485 1489 1494 1492 1488 1488 1487 1486 1486 1487 1488 1488 1489 1491 1492 1493 1494 1494 1494 1495 1495 1495 1496 1497 1497 1498 1499 1500 1500 1501 1501 1501 1501 1501
1493 1499 1507 1509 1507 1511 1497 1477 1476 1480 1481 1481 1482 1484 1484 1484 1484 1485 1485 1486 1486 1487 1488 1490 1491 1491 1492 1493 1493 1493 1493 1494 1495 1496 1496 1497 1498 1499 1500 1500 1500 1500 1501 1501
1482 1492 1503 1510 1511 1502 1486 1476 1475 1479 1482 1478 1479 1480 1481 1482 1484 1484 1483 1484 1485 1486 1487 1488 1489 1490 1491 1491 1491 1492 1492 1493 1494 1495 1496 1497 1498 1498 1499 1499 1499 1499 1500 1500
1480 1485 1497 1504 1506 1505 1488 1472 1470 1476 1485 1477 1476 1478 1479 1481 1487 1483 1480 1482 1483 1484 1486 1487 1488 1488 1489 1489 1490 1490 1490 1491 1492 1494 1495 1496 1497 1497 1498 1498 1498 1499 1499 1500
1490 1491 1495 1499 1501 1491 1474 1469 1470 1486 1485 1474 1473 1474 1475 1476 1476 1476 1477 1479 1481 1483 1484 1485 1486 1487 1487 1487 1488 1488 1488 1489 1491 1493 1494 1495 1496 1497 1497 1497 1498 1498 1499 1500
1489 1494 1495 1495 1499 1493 1468 1467 1472 1471 1466 1468 1468 1469 1470 1470 1471 1473 1474 1476 1479 1480 1482 1483 1484 1485 1485 1485 1485 1486 1486 1488 1490 1491 1493 1494 1495 1496 1496 1497 1497 1498 1498 1499
1481 1483 1484 1484 1483 1469 1464 1462 1461 1461 1461 1462 1463 1464 1465 1466 1467 1469 1471 1474 1476 1478 1479 1480 1481 1482 1483 1483 1483 1484 1485 1486 1488 1490 1491 1492 1493 1494 1495 1496 1496 1497 1498 1499
1475 1470 1473 1473 1467 1463 1462 1459 1458 1456 1456 1456 1458 1459 1460 1461 1463 1465 1468 1470 1472 1474 1476 1477 1478 1479 1480 1481 1481 1482 1484 1485 1487 1488 1489 1490 1491 1493 1494 1495 1496 1496 1497 1498
1471 1469 1470 1468 1463 1459 1456 1455 1454 1452 1452 1452 1453 1454 1455 1456 1458 1460 1463 1466 1468 1470 1472 1474 1475 1476 1477 1478 1479 1480 1482 1483 1485 1486 1488 1489 1490 1491 1492 1494 1495 1496 1497 1498
1461 1463 1465 1463 1456 1455 1452 1450 1450 1449 1447 1447 1447 1449 1450 1451 1452 1455 1458 1461 1464 1466 1468 1470 1471 1473 1474 1475 1477 1478 1480 1481 1483 1484 1486 1487 1489 1490 1492 1493 1494 1495 1497 1498